Location: Ikejouine
(32.5142°N, 5.4699°W)
Time: 19:12:48
(UTC+00:00)

Resurs 01 Rocket - Pass Details

Date: 09 April 2020
Orbit: 635 x 644 km, 98.0° (Epoch: 28 May)

Event Time Altitude Azimuth Distance (km) Brightness Sun altitude
Exits shadow 20:55:17 44° 13° (NNE) 877 2.3 -26.1°
Drops below altitude 10° 20:58:26 10° 354° (N) 2,027 4.6 -26.6°
Sets 21:00:39 0° 352° (N) 2,940 5.6 -27.0°
